www.pogodaiklimat.ru

Погода и климат >> Архив погоды >> Мексика >> Пуэрто-Анхель


ПОГОДА в Пуэрто-Анхеле

  • Прогноз погоды в Пуэрто-Анхеле
  • Монитор погоды в Пуэрто-Анхеле

АРХИВ ПОГОДЫ в Пуэрто-Анхеле

Время (UTC), дата Ветер
(напр.,м/с)
 
Видим.   Явления Облачность Т
(С)
Тd
(С)
f
(%)
Тe
(С)
Тes
(С)
Комфортность P
(гПа)
Po
(гПа)
Тmin
(С)
Tmax
(С)
R
(мм)
R24
(мм)
S
(см)
15 16.01 СВ 1 30 км ясно +26.0 +19.8 69 +32 +37 очень
душно
1016.2 1011.2
18 16.01 ЮВ 2 30 км 1/1 600 м
[Cu med, cong]
+31.2 +23.0 62 +41 +54 опасность
перегрева
1016.4 1011.4 +21.6 +32.2
21 16.01 Ю 2 30 км 1/1 600 м
[Cu med, cong]
+33.2 +23.4 57 +44 +52 опасность
перегрева
1013.4 1008.5
00 17.01 ЮЗ 2 30 км 1/1 600 м
[Cu med, cong]
+30.0 +23.1 67 +40 +40 очень
душно
1013.1 1008.2 +21.6 +34.2
03 17.01 СЗ 2 30 км ясно +27.0 +22.8 78 +36 +36 очень
душно
1014.4 1009.6
06 17.01 С 2 30 км ясно +26.0 +21.5 76 +33 +33 очень
душно
1015.9 1011.0 +34.2
12 17.01 С 2 30 км ясно +23.0 +18.9 78 +29 +29 очень
душно
1015.4 1010.4 +22.0 +34.2
15 17.01 В 1 30 км 5/1 600 м
[Cu med, cong Cs]
+27.4 +20.9 68 +34 +39 очень
душно
1015.4 1010.8
18 17.01 Ю 1 30 км 5/1 600 м
[Cu med, cong Cs]
+30.6 +22.9 64 +41 +55 опасность
перегрева
1015.8 1010.7 +22.0 +31.2
21 17.01 Ю 1 30 км 5/1 600 м
[Cu med, cong Cs]
+30.6 +22.9 64 +41 +49 опасность
перегрева
1015.8 1010.7 +22.0 +31.2
00 18.01 З 1 30 км 9/1 600 м
[Cu med, cong Cs]
+29.4 +23.4 70 +40 +40 очень
душно
1013.8 1008.9 +22.0 +32.2
03 18.01 СЗ 2 20 км 4/0
[Cs]
+25.8 +22.7 83 +34 +34 очень
душно
1016.4 1011.5
06 18.01 С 3 20 км 5/1 600 м
[Cu med, cong Ac und]
+24.0 +22.3 90 +31 +31 очень
душно
1016.8 1011.9 +34.2
09 18.01 С 3 20 км ясно +24.0 +21.4 85 +30 +30 очень
душно
1015.6 1010.6
12 18.01 С 2 20 км ясно +23.4 +19.6 79 +30 +30 очень
душно
1014.9 1009.9 +22.6
15 18.01 С 3 30 км ясно +27.6 +21.1 68 +35 +39 очень
душно
1016.0 1011.0
18 18.01 СВ 3 30 км 1/1 600 м
[Cu med, cong]
+30.8 +22.8 62 +40 +51 опасность
солнечного
удара
1015.9 1010.9 +22.6 +31.0
21 18.01 СВ 4 30 км 1/1 600 м
[Cu med, cong]
+31.2 +21.4 56 +39 +44 очень
душно
1012.7 1007.8
00 19.01 СЗ 4 30 км 3/1 600 м
[Cu med, cong Ac As]
+28.6 +22.8 71 +38 +38 очень
душно
1012.7 1007.8 +22.6 +32.0
03 19.01 СЗ 4 30 км 4/1 600 м
[Cu med, cong Cs]
+25.8 +22.5 82 +34 +34 очень
душно
1014.1 1009.2
06 19.01 С 4 30 км 6/1 600 м
[Cu med, cong Ac As Cs]
+25.2 +21.8 81 +32 +32 очень
душно
1014.7 1009.8 +32.0
09 19.01 С 3 30 км ясно +24.0 +21.4 85 +30 +30 очень
душно
1014.0 1009.1
15 19.01 С 3 30 км 3/1 600 м
[Cu med, cong Cs]
+26.6 +21.8 75 +34 +38 очень
душно
1014.9 1010.0
18 19.01 СВ 5 30 км 5/1 600 м
[Cu med, cong Cs]
+30.6 +22.3 61 +40 +46 очень
душно
1014.9 1010.0 +23.0 +30.8
21 19.01 СЗ 3 30 км 4/1 600 м
[Cu med, cong Cs]
+31.6 +24.0 64 +43 +49 опасность
перегрева
1012.1 1007.2
00 20.01 С 4 30 км 5/1 600 м
[Cu med, cong Cs]
+28.6 +23.7 75 +39 +39 очень
душно
1012.3 1007.4 +23.0 +32.8
03 20.01 С 2 20 км 5/0
[Ac und Cs]
+25.8 +23.3 86 +35 +35 очень
душно
1014.0 1009.1
06 20.01 С 2 20 км 9/1 600 м
[Cu med, cong Ac und Cs]
+25.6 +23.4 88 +35 +35 очень
душно
1015.5 1010.6 +32.8
12 20.01 С 2 20 км 8/0
[Cs]
+24.4 +21.9 86 +31 +31 очень
душно
1013.8 1008.8 +23.8 +32.8
15 20.01 С 1 20 км 6/1 600 м
[Cu med, cong Cs]
+26.8 +22.0 75 +35 +39 очень
душно
1015.6 1010.7
18 20.01 Ю 3 20 км 3/1 600 м
[Cu med, cong Cs]
+31.6 +24.6 66 +44 +55 опасность
перегрева
1016.3 1011.3 +23.8 +32.0
12 21.01 С 2 30 км ясно +22.4 +19.5 84 +28 +28 душно 1015.3 1010.3 +21.0 +32.6
15 21.01 ЮВ 1 30 км ясно +26.4 +19.1 64 +32 +38 очень
душно
1016.2 1011.2
18 21.01 ЮВ 2 30 км 1/1 600 м
[Cu med, cong]
+31.6 +18.2 45 +36 +49 очень
душно
1017.2 1012.2 +21.0 +32.8
21 21.01 ЮВ 2 30 км 1/1 600 м
[Cu med, cong]
+31.0 +19.5 50 +37 +44 очень
душно
1014.8 1009.7
00 22.01 ЮВ 1 30 км 1/1 600 м
[Cu med, cong]
+30.0 +19.4 53 +36 +36 очень
душно
1014.1 1009.2 +21.0 +32.6
03 22.01 В 1 30 км 6/1 600 м
[Cu med, cong Cs]
+24.8 +18.3 67 +29 +29 душно 1015.6 1010.7
06 22.01 С 1 30 км 6/0
[Cs]
+23.2 +17.8 72 +29 +29 душно 1015.4 1010.5 +21.0 +32.6
09 22.01 СВ 1 30 км 5/0
[Cs]
+22.6 +17.2 72 +27 +27 душно 1014.5 1009.5
12 22.01 С 1 30 км ясно +21.2 +17.3 78 +25 +25 комфорт 1013.7 1008.7 +19.6 +32.6
15 22.01 СВ 1 30 км 1/1 600 м
[Cu med, cong]
+22.4 +19.3 83 +28 +34 душно 1015.5 1010.5
18 22.01 ЮВ 2 30 км 1/1 600 м
[Cu med, cong]
+30.0 +23.1 67 +40 +54 опасность
солнечного
удара
1016.3 1011.3 +19.6 +31.6
21 22.01 ЮВ 2 30 км 1/1 600 м
[Cu med, cong]
+31.0 +23.6 65 +42 +50 опасность
перегрева
1013.6 1008.7
00 23.01 З 2 30 км 1/1 600 м
[Cu med, cong]
+29.6 +23.6 70 +40 +40 очень
душно
1012.9 1008.0 +19.6 +33.0
03 23.01 С 1 20 км 1/0
[Ac und]
+25.8 +23.0 85 +34 +34 очень
душно
1013.8 1008.9
06 23.01 С 2 20 км 4/0
[Ac trans]
+25.4 +22.9 86 +34 +34 очень
душно
1013.8 1008.9 +33.0
09 23.01 З 4 20 км 1/0
[Ac trans]
+25.4 +22.6 85 +33 +33 очень
душно
1012.9 1008.0
12 23.01 СЗ 4 20 км 3/0
[Ac trans]
+25.0 +20.7 77 +31 +31 очень
душно
1013.1 1008.1 +24.0 +33.0

 

Местоположение метеостанции Пуэрто-Анхель (Мексика): широта 15.68 долгота -96.48 высота над уровнем моря 46 м.

В архиве по умолчанию представлена погода в Пуэрто-Анхеле за последнюю неделю. Архивные данные за месяц целиком и за предыдущие месяцы, начиная с января 2011 года, Вы можете получить, выбрав интересующий диапазон дат из раскрывающегося списка и нажав кнопку "Ввод!".


*Определитесь, кто Вы:
робот инопланетянин человек

Внимание! Время в таблицах - всемирное. Для получения местного времени необходимо прибавить поправку, которая равна -6 ч.

Смотрите также архив погоды в соседних городах и на ближайших метеорологических станциях:

Погода в Салина-Крусе (Мексика) (149 км)
Погода в Оахаке (Мексика) (154 км)
Погода в Уахуапан-де-Леоне (Мексика) (273 км)
Погода в Арриаге (Мексика) (283 км)
Погода в Коацакоалькосе (Мексика) (350 км)
Погода в Оризабе (Мексика) (359 км)
Погода в Кордове (Мексика) (361 км)
Погода в Тустла-Гутьерресе (Мексика) (377 км)
Погода в Чильпансинго (Мексика) (383 км)
Погода в Веракрусе (Мексика) (388 км)

Пояснения к столбцам:

Ветер - указаны скорость ветра в м/с - средняя за 10 мин, порывы в срок и между сроками (в фигурных скобках) и направление, откуда дует ветер: С - северный, СВ - северо-восточный, В - восточный, ЮВ - юго-восточный, Ю - южный, ЮЗ - юго-западный, З - западный, СЗ - северо-западный.
Видимость - горизонтальная дальность видимости в метрах или километрах. При видимости от 1 до 10 км при отсутствии осадков обычно наблюдается дымка, при ухудшении видимости до 1 км и менее - туман. В сухую погоду видимость может ухудшаться дымом, пылью или мглою.
Явления - указаны атмосферные явления, наблюдавшиеся в срок или в последний час перед сроком; фигурными скобками обозначены явления, наблюдавшиеся между сроками (за 1-3 часа до срока); квадратными скобками обозначены град или гололедные отложения с указанием их диаметра в мм.
Облачность - указаны через наклонную черту общая и нижняя облачность в баллах и высота нижней границы облаков в метрах; квадратными скобками обозначены формы облаков: Ci - перистые, Cs - перисто-слоистые, Cc - перисто-кучевые, Ac - высококучевые, As - высокослоистые, Sc - слоисто-кучевые, Ns - слоисто-дождевые, Cu - кучевые, Cb - кучево-дождевые. Подробнее классификацию облаков см. в Атласе облаков (PDF).
T - Температура воздуха - температура, измеренная на высоте 2 м над землей.
Td - Температура точки росы - температура, при понижении до которой содержащийся в воздухе водяной пар достигнет насыщения.
f - Относительная влажность воздуха - влажноcть воздуха, измеренная на высоте 2 м над землей.
Te - Эффективная температура - температура, которую ощущает одетый по сезону человек в тени. Характеристика душности погоды. При расчете учитывается влияние влажности воздуха и скорости ветра на теплоощущения человека.
Tes - Эффективная температура на солнце - температура, которую ощущает человек, с поправкой на солнечный нагрев. Характеристика знойности погоды. Зависит от высоты солнца над горизонтом, облачности и скорости ветра. Ночью, в пасмурную погоду, а также при ветре 12 м/с и более поправка равна нулю.
P - Атмосферное давление - приведенное к уровню моря атмосферное давление.
Po - Атмосферное давление - измеренное на уровне метеостанции атмосферное давление.
Tmin - Минимальная температура - минимум температуры воздуха на высоте 2 м над землей.
Tmax - Максимальная температура - максимум температуры воздуха на высоте 2 м над землей.
R - Количество осадков - Количество выпавших осадков за период времени, мм. При наведении курсора мыши на число - период времени, за который выпало указанное количество осадков.
R24 - Количество осадков - Количество выпавших осадков за 24 часа, мм.
S - Снежный покров - Высота снежного покрова, см. При наведении курсора мыши на число - состояние снежного покрова и степень покрытия местности в баллах.